Wind_Speed
97 100 103 105 108 110 110 112 114 117 117 118 119 120 119 121 123 124 125 128 126 121 110 109 104 101 99 98 94 88 82 77 74 72 71 70 60 58 55 54 51 49 49 47 45 40 35 43 48 49 38 34 39 42
106 109 111 113 113 112 111 111 111 110 110 112 113 113 113 112 109 109 109 104 102 100 94 89 86 85 85 82 74 69 67 67 64 61 60 55 49 49 48 46 46 44 42 41 36 39 41 44 45 37 33 35 34 37
109 110 108 107 107 107 104 102 102 100 101 101 101 99 96 94 94 92 91 88 86 82 76 74 74 71 67 63 57 57 57 55 52 50 47 46 40 38 40 40 39 40 41 36 37 39 40 40 41 37 32 29 33 31
104 104 103 100 95 90 86 85 87 89 89 88 84 81 78 78 77 77 75 73 70 64 60 66 56 57 52 48 48 49 44 42 43 39 37 37 35 34 36 39 36 37 40 37 33 37 36 35 34 32 30 29 26 27
92 89 87 82 73 70 73 76 77 75 73 71 68 67 65 65 65 63 63 59 55 50 50 49 46 41 41 40 39 36 34 35 32 30 30 31 32 31 34 36 35 39 35 32 35 34 30 32 30 30 29 28 27 26
82 79 70 59 60 61 62 62 62 60 58 57 57 55 58 55 54 52 50 47 45 42 39 35 36 35 33 31 28 27 27 27 26 26 26 29 31 32 36 33 36 31 29 28 28 30 27 28 27 28 29 29 29 27
70 64 55 54 54 51 52 52 50 49 49 48 49 49 49 46 45 44 43 39 36 33 31 31 29 27 26 22 22 23 23 23 22 22 27 29 32 30 28 33 27 25 21 19 25 27 25 25 23 26 25 28 28 25
59 51 48 49 47 43 42 40 38 39 39 37 36 36 36 35 33 32 31 29 28 27 26 23 22 22 21 19 19 19 18 18 21 24 26 28 25 25 30 25 23 18 17 22 24 24 20 16 17 19 18 22 23 20
46 40 36 35 35 33 31 29 27 28 28 27 26 26 26 25 23 22 21 19 18 19 19 17 18 18 17 16 17 18 19 19 22 23 24 22 23 25 23 21 20 16 16 23 23 14 10 11 14 18 17 19 20 21
28 26 26 26 26 26 25 23 20 18 17 18 18 19 17 16 16 16 14 14 13 12 13 13 12 13 14 14 14 16 18 19 20 21 21 21 18 19 19 21 17 15 20 20 15 11 12 14 13 17 17 18 19 21
21 21 20 18 18 18 18 17 15 13 10 8 8 8 9 10 10 10 10 9 8 8 9 11 13 12 12 12 16 16 16 17 18 16 16 14 14 19 20 18 18 18 20 18 16 14 15 18 18 19 20 20 18 19
16 17 16 16 16 15 14 11 10 9 7 4 4 5 4 3 4 5 4 3 4 5 6 8 8 10 10 12 13 15 15 13 13 14 14 13 20 20 19 20 19 19 20 19 15 14 13 17 18 18 19 17 19 20
12 12 13 14 13 13 12 12 10 9 7 5 2 3 4 5 5 5 5 3 1 1 3 5 6 8 8 10 11 12 12 11 12 10 14 20 20 18 20 19 18 17 19 18 17 15 14 15 16 17 16 17 18 20
18 17 16 15 14 13 12 13 12 10 10 8 8 7 8 7 6 6 4 4 3 3 3 3 4 6 7 9 10 10 10 10 10 16 20 18 19 20 19 19 18 18 21 19 18 19 17 16 16 16 16 18 21 23
22 21 21 21 19 18 18 17 16 16 15 13 12 12 10 9 7 6 6 5 4 4 4 4 4 6 6 8 9 10 11 12 16 20 19 18 20 18 18 19 21 21 21 21 22 21 20 19 19 20 21 22 24 25
28 27 28 27 27 27 26 25 23 22 21 20 19 18 16 15 14 12 11 10 9 7 6 6 6 6 8 9 9 10 12 13 17 17 16 20 20 19 20 21 23 23 23 23 22 22 22 23 23 23 24 25 27 28
32 32 31 30 30 29 29 28 27 27 26 25 24 23 21 20 19 18 16 14 12 11 10 9 9 10 11 12 12 12 14 14 16 16 17 21 22 21 21 21 21 23 24 25 25 25 24 25 26 26 27 28 30 31
30 30 31 31 30 30 30 29 29 28 27 27 26 25 24 23 22 20 19 18 17 16 15 14 13 13 12 12 12 13 14 16 16 17 17 19 21 22 22 22 21 22 23 24 25 26 27 28 29 30 31 32 32 34
29 29 28 28 28 28 28 28 27 27 27 26 26 26 25 23 22 22 20 19 17 16 14 14 15 15 15 15 14 16 17 17 18 19 20 21 22 22 22 23 23 22 22 24 26 27 29 31 33 34 35 36 36 37
29 28 27 27 27 27 27 27 27 26 26 25 25 24 24 23 22 20 19 19 19 18 18 17 16 15 15 14 16 16 17 19 20 21 21 23 23 24 24 25 25 26 26 26 28 30 31 32 34 35 37 38 38 38
31 30 28 27 26 26 26 26 25 25 25 25 24 23 22 21 21 20 19 18 18 17 17 16 16 16 16 15 16 17 17 19 20 22 23 24 25 25 27 28 29 29 30 30 30 30 33 35 36 36 37 38 39 40
29 28 28 27 27 27 28 29 28 28 27 26 26 24 24 23 22 20 20 20 19 19 18 18 18 18 19 17 16 16 16 17 18 20 22 24 25 26 27 29 30 31 32 33 34 34 35 36 37 38 38 39 40 41
28 28 28 28 28 28 28 29 30 30 30 29 28 27 27 26 25 25 24 22 22 22 21 20 19 19 19 19 20 21 19 18 17 17 19 21 23 24 26 28 30 32 33 34 36 37 38 38 39 40 40 41 42 43
28 28 28 28 28 29 31 31 31 31 30 30 29 30 30 29 28 27 27 26 26 24 24 24 24 24 23 22 22 24 23 22 22 20 20 20 20 21 23 25 27 28 30 32 34 37 38 39 40 41 42 42 43 44
27 28 28 29 28 29 29 30 30 31 32 32 32 32 32 32 32 32 30 28 28 28 28 28 27 27 26 26 25 25 27 26 26 25 24 26 26 24 22 22 24 26 27 29 31 32 34 37 39 40 42 43 44 44
32 31 31 31 31 31 30 30 31 32 31 31 31 32 33 34 35 36 35 34 34 33 31 31 31 30 29 30 30 28 29 29 29 28 26 26 28 29 28 26 25 25 26 27 28 30 32 34 36 37 39 41 42 44
35 35 35 35 35 35 34 34 33 32 32 33 32 32 33 34 36 36 40 41 39 37 36 35 34 33 32 31 31 32 32 31 31 31 30 28 28 29 31 31 30 30 29 29 29 30 31 32 34 35 37 39 41 41
35 35 36 36 36 36 36 36 35 35 36 36 38 37 38 39 42 42 43 44 44 42 39 38 37 36 35 33 33 32 31 32 33 33 33 31 29 29 32 34 33 33 33 32 31 32 33 34 36 37 38 39 40 41
39 39 38 39 39 38 39 39 39 38 38 41 42 42 40 45 47 45 43 40 40 41 40 39 37 36 36 36 35 34 34 34 34 33 33 33 31 30 32 33 34 35 35 34 34 34 34 35 37 38 39 40 41 42
40 39 41 41 40 40 41 41 41 42 44 45 45 45 41 40 43 45 44 43 42 41 39 38 37 36 35 36 34 33 35 36 34 32 32 32 33 33 33 33 33 34 35 35 35 36 36 37 38 39 40 40 40 41
41 43 44 43 43 44 44 44 43 43 43 44 44 44 43 42 42 42 43 44 43 42 39 37 36 36 35 34 35 34 31 33 34 32 31 32 32 33 33 34 34 34 35 35 36 37 37 38 39 40 40 40 40 40
42 43 44 45 46 46 46 45 44 43 41 42 42 43 43 42 46 45 44 44 43 42 39 37 36 36 35 34 33 32 30 27 29 32 32 32 32 32 32 33 34 34 34 35 36 37 37 38 38 39 39 39 39 38
46 46 46 46 47 47 46 45 45 45 44 44 45 46 44 42 41 44 44 42 41 39 37 37 36 34 32 31 30 29 29 28 28 28 30 31 32 32 33 33 33 33 34 35 37 37 37 37 38 38 37 37 37 36
Wind_Direction
272 272 273 273 273 274 274 274 274 274 275 276 276 277 276 276 275 275 275 274 275 277 278 277 279 280 278 277 277 277 278 277 276 275 274 276 278 277 274 272 273 272 271 272 273 274 269 270 268 271 278 269 268 264
275 276 276 277 277 276 277 278 277 278 278 278 277 276 275 275 276 276 276 278 278 279 279 280 279 276 275 276 278 277 273 271 272 271 272 275 273 270 269 269 271 270 269 266 267 266 263 262 273 280 274 269 264 265
277 277 277 277 278 277 277 278 279 279 278 276 275 274 274 276 277 278 278 278 278 278 280 278 274 275 277 276 276 270 268 269 269 268 269 268 270 263 266 264 264 269 267 268 260 261 262 266 271 274 271 263 257 256
279 278 278 277 276 277 280 281 281 278 276 276 277 279 279 277 278 276 278 277 278 279 277 276 278 275 275 272 268 266 267 263 263 264 263 260 256 254 256 256 259 258 261 267 269 265 266 266 264 263 260 252 250 249
278 277 278 280 286 289 284 279 276 276 278 279 279 278 278 276 276 276 275 277 278 276 276 276 274 273 265 264 264 265 262 260 259 255 252 253 253 249 246 252 249 255 267 268 266 268 265 264 263 260 256 246 238 234
282 283 286 293 290 282 279 278 278 279 280 279 279 280 277 278 277 276 277 277 274 274 273 271 266 265 261 258 257 257 254 253 248 248 246 245 245 243 245 250 255 262 262 264 264 264 261 260 259 255 254 247 240 233
286 287 293 290 286 286 285 284 283 282 281 281 278 277 278 279 277 277 275 274 273 271 266 264 264 263 258 256 252 248 247 246 244 243 241 241 244 250 255 253 263 261 264 261 254 259 259 260 258 257 253 257 250 236
287 294 295 291 288 286 283 281 280 278 277 278 278 278 278 277 276 273 273 274 274 271 268 266 261 256 251 243 243 243 240 238 235 233 237 241 244 246 251 260 264 261 251 250 258 263 269 278 269 267 260 255 247 235
290 290 291 293 293 293 287 281 279 277 277 277 276 276 274 271 270 273 276 278 280 280 268 258 253 251 246 240 237 236 229 232 235 236 240 244 246 250 257 257 254 256 249 248 255 264 265 255 245 242 236 233 235 231
296 301 302 302 301 298 291 290 285 282 283 281 278 275 280 286 286 282 278 275 266 269 267 256 252 244 245 242 236 234 234 230 232 237 239 243 246 248 247 249 253 242 242 249 247 239 239 237 232 237 231 227 227 227
314 315 318 318 315 308 301 292 285 271 272 289 305 313 310 302 294 291 291 288 283 268 254 244 238 231 230 230 245 245 244 241 243 245 245 247 238 237 243 246 246 235 242 245 234 224 231 226 219 224 226 224 227 232
333 333 334 337 340 340 342 335 327 316 313 323 346 335 332 359 346 312 302 293 268 271 277 271 265 249 246 247 235 239 241 242 240 239 235 227 237 242 245 245 244 242 243 244 230 221 227 225 228 235 238 234 230 233
3 1 1 359 2 4 8 11 9 4 355 360 359 43 15 33 31 28 34 356 338 350 306 289 262 260 253 251 248 249 254 253 244 240 235 237 246 250 248 249 246 247 247 244 233 225 226 236 235 236 238 240 243 244
21 21 21 22 22 25 27 30 33 33 27 24 12 30 39 53 48 57 55 48 35 27 351 313 287 274 264 258 260 261 254 254 244 246 248 252 252 248 246 249 248 237 237 234 234 231 227 230 238 241 243 246 247 249
46 41 37 35 34 36 38 37 36 36 37 42 42 41 38 40 42 47 50 40 33 24 354 334 304 289 289 284 277 273 267 259 251 254 261 260 261 262 259 253 249 243 244 249 238 236 237 237 238 241 245 248 249 252
47 47 47 47 46 42 38 34 35 38 39 38 36 33 30 30 30 30 26 24 14 5 352 334 320 301 288 284 281 275 273 267 264 270 270 264 266 264 260 253 252 255 251 249 251 248 243 244 246 246 248 250 253 256
42 43 44 44 44 44 44 45 44 42 38 34 33 32 29 25 22 19 15 10 5 356 348 340 328 317 315 314 307 283 279 276 271 267 262 263 266 267 266 262 257 257 256 256 257 258 260 259 258 257 256 255 257 259
33 35 38 38 39 40 41 41 41 40 40 40 40 39 36 31 26 21 15 9 3 355 346 337 329 322 315 304 306 298 285 279 277 272 268 265 268 270 266 263 261 259 261 263 262 262 263 262 263 263 263 262 263 265
25 26 27 29 30 31 32 33 35 35 35 35 34 33 32 31 31 29 24 17 10 4 356 347 334 330 321 310 299 290 287 283 276 268 263 259 257 259 263 266 265 261 258 256 256 258 258 259 260 261 262 264 265 267
11 13 16 18 20 20 21 21 22 21 22 23 24 25 24 23 21 19 17 14 12 9 4 358 348 340 331 320 311 304 293 284 282 279 274 268 268 268 266 265 264 263 261 258 255 256 256 257 259 261 262 263 264 266
0 360 0 1 3 5 7 9 10 11 9 8 8 7 8 9 9 9 8 6 360 357 354 352 349 349 344 334 325 316 306 296 291 287 284 280 277 273 271 270 268 265 262 259 256 255 257 258 260 262 264 265 266 268
352 351 352 351 349 349 350 350 352 353 354 353 353 353 352 350 349 349 350 348 350 349 348 345 340 336 333 330 327 320 315 308 301 297 291 285 280 276 273 271 271 270 269 268 264 261 259 259 260 261 263 264 266 268
351 349 347 345 343 341 339 339 338 338 338 338 338 338 337 336 336 335 333 333 332 330 330 330 329 328 325 321 318 313 313 308 307 304 299 292 287 283 279 276 272 269 267 267 268 269 267 265 265 265 265 265 267 268
350 348 345 341 337 335 334 333 332 331 331 331 330 328 326 325 325 323 321 321 318 317 315 315 316 317 318 316 314 311 308 304 300 297 295 293 291 291 287 284 280 277 275 272 269 269 268 268 268 267 268 268 268 268
351 348 344 342 339 335 331 328 329 327 324 324 323 322 321 319 318 316 313 312 308 307 305 305 306 305 305 306 308 307 304 303 300 296 293 291 291 288 285 285 285 284 281 279 277 275 273 273 272 271 270 270 268 268
341 340 339 338 334 332 331 328 325 324 322 320 320 319 318 316 313 311 308 309 306 305 302 299 298 298 298 299 299 300 301 301 299 299 295 290 287 286 285 284 284 284 283 282 282 281 280 279 278 278 276 275 275 274
333 333 331 330 329 327 326 323 321 319 317 314 314 313 313 311 308 307 306 305 304 303 300 300 298 298 295 293 293 294 296 296 297 297 296 293 288 285 284 283 281 283 284 285 286 286 285 285 283 281 279 279 278 278
327 327 326 325 324 322 321 319 318 315 312 311 311 311 309 306 304 304 301 301 303 304 303 301 301 299 296 294 292 292 291 292 294 294 294 295 293 288 282 280 283 283 283 283 285 286 288 288 288 287 286 284 282 281
323 322 321 319 318 318 318 316 314 311 310 309 308 307 309 305 304 304 304 304 301 300 300 301 300 298 297 296 295 294 294 295 294 293 293 293 293 290 286 283 281 282 283 284 285 286 287 288 288 288 287 285 284 283
318 317 317 317 316 316 316 315 313 310 310 310 310 309 310 307 305 305 306 305 302 301 302 301 300 298 297 296 294 292 293 293 293 293 291 291 291 290 288 286 284 282 283 284 285 287 288 289 289 289 288 287 285 284
316 316 315 315 316 316 316 316 315 314 313 311 310 308 309 307 305 306 304 303 303 305 306 305 304 302 299 297 296 295 293 292 293 293 292 291 291 290 290 289 287 285 285 285 287 288 289 289 290 290 289 287 286 284
316 316 315 315 315 317 318 318 317 316 314 312 309 307 308 308 305 305 303 304 305 308 310 308 305 301 300 300 300 299 298 295 293 294 295 294 293 292 291 290 288 288 287 288 289 290 290 290 290 290 289 288 286 285
318 317 318 318 318 319 320 319 318 317 316 313 310 308 307 305 302 302 306 309 310 308 305 305 306 307 306 303 302 299 297 297 296 295 295 295 294 294 293 292 291 290 290 292 293 293 293 293 293 292 290 288 288 288
Height
10289 10285 10281 10277 10274 10271 10267 10265 10262 10258 10254 10246 10237 10227 10215 10203 10191 10183 10176 10163 10157 10153 10163 10148 10146 10144 10135 10132 10132 10135 10136 10134 10131 10132 10131 10130 10138 10136 10140 10139 10140 10141 10141 10144 10144 10145 10149 10141 10141 10141 10146 10149 10146 10147
10258 10254 10251 10245 10239 10234 10230 10228 10226 10221 10213 10204 10193 10183 10172 10163 10158 10151 10143 10139 10132 10127 10128 10126 10120 10113 10110 10110 10114 10113 10112 10108 10112 10113 10114 10117 10122 10122 10123 10126 10124 10128 10130 10131 10135 10132 10131 10130 10129 10132 10133 10134 10136 10136
10228 10222 10215 10209 10204 10200 10197 10195 10191 10183 10172 10161 10153 10147 10142 10140 10131 10124 10117 10113 10109 10106 10105 10098 10094 10093 10093 10093 10095 10090 10090 10093 10097 10099 10101 10103 10108 10111 10111 10112 10113 10113 10114 10119 10120 10120 10121 10122 10120 10121 10122 10124 10124 10126
10197 10190 10183 10177 10171 10170 10171 10165 10155 10145 10136 10131 10128 10123 10118 10112 10107 10100 10095 10090 10087 10089 10085 10074 10081 10075 10076 10076 10074 10073 10078 10080 10082 10087 10090 10091 10095 10098 10098 10098 10104 10103 10102 10107 10111 10108 10110 10110 10111 10113 10113 10114 10114 10117
10168 10161 10154 10150 10153 10152 10143 10131 10122 10117 10113 10109 10105 10100 10096 10090 10085 10082 10076 10074 10072 10070 10067 10064 10062 10062 10059 10060 10061 10063 10067 10068 10073 10076 10078 10080 10083 10085 10088 10090 10093 10092 10097 10101 10098 10099 10102 10100 10102 10102 10103 10105 10105 10108
10145 10137 10133 10134 10129 10121 10113 10106 10102 10098 10094 10089 10084 10082 10075 10073 10070 10066 10063 10060 10057 10056 10053 10050 10048 10048 10048 10049 10052 10054 10057 10061 10063 10066 10069 10070 10073 10075 10077 10083 10082 10090 10092 10091 10090 10091 10092 10092 10094 10095 10097 10098 10099 10100
10123 10118 10118 10113 10104 10100 10093 10088 10084 10079 10075 10072 10069 10065 10062 10060 10057 10055 10052 10049 10046 10043 10041 10039 10040 10040 10041 10043 10044 10046 10049 10052 10056 10060 10061 10064 10065 10071 10073 10073 10078 10082 10083 10083 10081 10082 10084 10085 10087 10089 10091 10095 10095 10096
10108 10106 10101 10095 10089 10085 10080 10075 10070 10067 10063 10060 10057 10055 10052 10050 10047 10044 10041 10039 10037 10035 10034 10034 10034 10034 10034 10036 10038 10041 10044 10048 10051 10053 10055 10057 10063 10065 10065 10069 10070 10074 10075 10075 10076 10076 10078 10081 10083 10085 10087 10089 10092 10093
10100 10098 10091 10084 10077 10072 10068 10064 10060 10056 10053 10051 10048 10046 10043 10041 10038 10035 10034 10032 10031 10030 10029 10029 10029 10029 10030 10032 10034 10037 10040 10043 10047 10049 10051 10054 10056 10058 10060 10062 10063 10066 10068 10068 10069 10072 10074 10075 10075 10077 10079 10082 10086 10089
10093 10088 10082 10076 10070 10065 10059 10055 10052 10050 10047 10044 10042 10039 10036 10034 10032 10030 10029 10027 10026 10025 10026 10026 10026 10027 10028 10030 10032 10034 10036 10039 10042 10046 10048 10051 10053 10053 10054 10056 10058 10061 10061 10063 10065 10067 10069 10069 10071 10072 10074 10077 10080 10084
10086 10081 10077 10072 10066 10061 10056 10052 10048 10045 10042 10039 10036 10034 10032 10030 10029 10027 10026 10025 10024 10024 10023 10023 10023 10025 10027 10029 10032 10034 10036 10038 10041 10043 10045 10047 10048 10048 10049 10051 10053 10055 10056 10058 10060 10062 10062 10062 10064 10066 10070 10073 10076 10080
10083 10077 10073 10068 10063 10058 10053 10049 10046 10043 10039 10036 10034 10033 10031 10028 10026 10025 10024 10024 10023 10023 10024 10025 10026 10026 10028 10028 10030 10032 10034 10036 10038 10039 10041 10043 10041 10043 10045 10046 10048 10051 10052 10054 10057 10058 10058 10059 10061 10063 10066 10069 10072 10075
10083 10078 10072 10067 10063 10059 10054 10050 10047 10044 10041 10038 10036 10033 10031 10028 10026 10026 10025 10024 10024 10023 10024 10025 10026 10027 10028 10028 10029 10031 10032 10034 10035 10037 10037 10036 10038 10040 10041 10043 10045 10048 10049 10050 10051 10053 10055 10057 10058 10060 10062 10065 10068 10071
10082 10078 10073 10069 10065 10061 10057 10053 10049 10046 10043 10041 10038 10035 10032 10030 10029 10028 10027 10026 10026 10025 10025 10026 10027 10027 10028 10029 10029 10030 10031 10032 10033 10032 10031 10033 10035 10035 10037 10039 10041 10042 10043 10044 10046 10048 10051 10053 10054 10056 10058 10060 10063 10065
10087 10082 10077 10072 10067 10063 10060 10056 10052 10049 10046 10043 10041 10038 10036 10034 10032 10030 10029 10028 10027 10026 10026 10027 10027 10027 10027 10027 10028 10028 10028 10029 10029 10028 10028 10030 10030 10032 10034 10035 10036 10037 10039 10040 10041 10043 10045 10047 10049 10051 10054 10055 10057 10058
10093 10088 10082 10077 10072 10067 10062 10058 10054 10051 10048 10045 10043 10041 10039 10036 10035 10033 10031 10030 10029 10028 10027 10027 10027 10026 10026 10026 10026 10026 10026 10026 10024 10024 10026 10025 10025 10027 10028 10030 10030 10031 10033 10034 10036 10038 10039 10041 10043 10045 10047 10048 10050 10051
10100 10094 10089 10084 10080 10075 10070 10065 10061 10057 10053 10049 10045 10042 10040 10038 10036 10034 10033 10031 10030 10029 10028 10027 10026 10024 10024 10024 10024 10023 10023 10022 10021 10021 10021 10021 10021 10022 10023 10024 10025 10026 10027 10029 10030 10032 10033 10035 10036 10037 10039 10041 10042 10043
10104 10100 10096 10091 10087 10082 10078 10073 10069 10065 10060 10057 10053 10050 10046 10043 10040 10037 10035 10033 10031 10029 10027 10025 10024 10023 10022 10021 10020 10019 10018 10018 10018 10017 10016 10016 10016 10016 10017 10017 10018 10020 10022 10023 10024 10026 10027 10027 10028 10030 10030 10031 10033 10034
10110 10105 10100 10095 10091 10087 10083 10079 10075 10071 10067 10063 10059 10055 10052 10049 10045 10042 10039 10036 10033 10031 10028 10026 10023 10022 10020 10018 10017 10016 10014 10013 10012 10011 10010 10010 10009 10009 10010 10011 10011 10012 10014 10015 10016 10018 10019 10020 10020 10021 10021 10021 10022 10023
10112 10108 10104 10099 10095 10091 10087 10083 10078 10074 10070 10066 10063 10059 10056 10052 10049 10046 10042 10039 10035 10032 10028 10025 10023 10020 10017 10016 10014 10012 10010 10008 10007 10006 10005 10005 10003 10003 10003 10003 10004 10004 10005 10006 10007 10008 10009 10010 10010 10011 10011 10011 10012 10012
10115 10110 10106 10101 10097 10093 10090 10086 10081 10077 10073 10069 10065 10061 10057 10054 10051 10047 10044 10040 10037 10033 10030 10026 10022 10019 10016 10013 10011 10008 10006 10004 10002 10001 9999 9998 9997 9996 9996 9996 9996 9996 9997 9997 9997 9997 9998 9999 9999 9999 10000 10000 10000 10000
10116 10112 10108 10103 10099 10094 10090 10086 10082 10078 10074 10069 10065 10061 10057 10054 10050 10047 10042 10038 10035 10031 10028 10025 10021 10018 10014 10011 10008 10005 10002 9999 9997 9995 9993 9991 9990 9989 9989 9988 9987 9987 9987 9987 9987 9987 9987 9987 9987 9988 9988 9988 9988 9988
10115 10111 10107 10102 10098 10094 10090 10085 10081 10077 10072 10068 10064 10060 10055 10051 10047 10043 10039 10036 10032 10028 10025 10021 10018 10014 10011 10008 10005 10001 9999 9995 9993 9990 9988 9986 9984 9982 9981 9980 9979 9977 9977 9976 9976 9975 9975 9975 9975 9975 9975 9975 9974 9974
10113 10109 10104 10100 10096 10091 10087 10082 10078 10073 10069 10065 10061 10056 10051 10047 10044 10039 10035 10032 10027 10024 10020 10016 10012 10009 10005 10002 9999 9995 9992 9990 9987 9985 9982 9979 9977 9975 9972 9971 9970 9968 9967 9966 9966 9965 9964 9963 9963 9962 9961 9962 9961 9960
10110 10106 10101 10096 10092 10087 10082 10078 10073 10069 10064 10059 10054 10050 10046 10041 10036 10032 10028 10025 10021 10017 10013 10009 10005 10001 9998 9995 9992 9989 9985 9982 9980 9978 9976 9972 9970 9967 9965 9963 9961 9959 9958 9956 9955 9954 9953 9952 9951 9950 9949 9949 9948 9947
10104 10100 10095 10091 10085 10080 10076 10071 10066 10060 10056 10051 10048 10043 10038 10033 10029 10024 10019 10016 10011 10008 10004 10000 9996 9992 9989 9986 9982 9979 9977 9973 9970 9968 9967 9964 9961 9958 9956 9954 9952 9950 9948 9946 9945 9943 9942 9940 9939 9938 9937 9935 9934 9933
10097 10092 10087 10082 10077 10072 10067 10062 10057 10052 10047 10042 10038 10034 10029 10024 10019 10015 10008 10002 10000 9997 9993 9989 9986 9982 9979 9976 9973 9969 9966 9963 9961 9957 9954 9953 9951 9948 9945 9943 9941 9939 9937 9935 9934 9932 9930 9928 9926 9925 9923 9921 9919 9918
10090 10084 10079 10073 10068 10062 10057 10052 10047 10042 10036 10031 10026 10022 10018 10014 10008 10004 9998 9993 9988 9984 9980 9977 9973 9970 9967 9964 9961 9959 9956 9953 9949 9946 9942 9941 9939 9937 9933 9931 9930 9928 9926 9924 9922 9920 9918 9916 9913 9911 9909 9907 9905 9903
10079 10074 10069 10064 10058 10052 10047 10042 10036 10031 10026 10020 10015 10011 10009 10000 9993 9988 9984 9981 9976 9972 9967 9964 9961 9957 9954 9951 9948 9946 9943 9940 9937 9933 9931 9928 9926 9925 9922 9920 9918 9915 9913 9912 9910 9908 9906 9903 9901 9898 9896 9893 9891 9889
10070 10065 10059 10054 10048 10043 10038 10032 10026 10019 10013 10008 10002 9996 9995 9990 9982 9975 9971 9966 9962 9958 9955 9952 9948 9945 9942 9938 9936 9934 9931 9927 9924 9922 9919 9917 9914 9912 9909 9907 9905 9903 9901 9899 9897 9895 9893 9891 9888 9885 9883 9880 9878 9875
10060 10054 10048 10043 10037 10032 10027 10021 10015 10010 10003 9995 9989 9983 9980 9976 9971 9965 9959 9953 9949 9945 9942 9939 9936 9932 9929 9926 9922 9920 9920 9916 9911 9909 9907 9905 9903 9900 9897 9894 9892 9891 9889 9887 9885 9882 9880 9877 9875 9872 9869 9867 9864 9861
10050 10044 10039 10033 10027 10021 10016 10009 10003 9997 9991 9984 9978 9973 9968 9964 9956 9951 9946 9941 9937 9934 9931 9927 9923 9919 9915 9912 9909 9906 9904 9903 9901 9897 9894 9892 9890 9888 9885 9882 9880 9878 9876 9874 9872 9869 9867 9864 9862 9859 9856 9853 9850 9848
10037 10031 10026 10021 10015 10009 10003 9997 9992 9984 9979 9973 9965 9959 9955 9951 9946 9939 9934 9931 9927 9922 9918 9914 9910 9907 9904 9901 9898 9895 9893 9891 9889 9887 9884 9881 9878 9876 9873 9871 9869 9866 9864 9862 9859 9856 9854 9851 9848 9845 9842 9840 9837 9835